• Join FlightAware (Why Join?)
  • Login
  • US Flag GB Flag 
23:10 EST


 

Airport Tracker/Info


-or-


 

Live Flight TrackerFlight Track Log ✈ N785JP ✈ 27-Jun-2013 ✈ KSYR - 5B2

Flight Track Log - Related Links

Times and Time Zones

All times are in EDT time to prevent confusion due to time zone crossing. See the N785JP flight status page for this flight to view local times or setup timezone preferences in your user account.

Time Position Orientation Groundspeed Altitude Reporting Facility
EDT Latitude Longitude Course Direction KTS MPH feet Rate Location/Type
17:52 43.1033 -76.0036 94° East 159 183 3,600  Level Boston Center
17:53 43.0967 -75.9464 99° East 159 183 5,200 1,513 Climbing Boston Center
17:54 43.0922 -75.8892 96° East 159 183 6,600 1,400 Climbing Boston Center
17:55 43.0878 -75.8292 96° East 159 183 8,000 1,388 Climbing Boston Center
17:56 43.0875 -75.7667 90° East 159 183 9,400 1,300 Climbing Boston Center
17:57 43.0975 -75.7075 77° East 159 183 10,600 807 Climbing Boston Center
17:58 43.1058 -75.6369 81° East 165 190 11,000 200 Climbing Boston Center
17:59 43.1142 -75.5661 81° East 180 207 11,000  Level Boston Center
18:00 43.1122 -75.4836 92° East 192 221 11,000 -114 Level Boston Center
18:01 43.1117 -75.4208 91° East 208 239 10,800 -800 Descending Boston Center
18:02 43.1056 -75.3353 96° East 237 273 9,600 -945 Descending Boston Center
18:03 43.1017 -75.2442 93° East 227 261 8,800 -738 Descending Boston Center
18:04 43.0992 -75.1672 93° East 218 251 8,100 -606 Descending Boston Center
18:05 43.0969 -75.0875 92° East 215 247 7,700 -365 Descending Boston Center
18:06 43.0947 -75.0078 92° East 206 237 7,400 -309 Descending Boston Center
18:07 43.0936 -74.9650 92° East 215 247 7,200 -273 Descending Boston Center
18:07 43.0903 -74.9194 96° East 216 249 7,100 -132 Descending Boston Center
18:08 43.0878 -74.8397 92° East 216 249 7,000 -49 Descending Boston Center
18:09 43.0856 -74.7569 92° East 216 249 7,000  Level Boston Center
18:10 43.0808 -74.6689 94° East 216 249 7,000  Level Boston Center
18:11 43.0786 -74.5806 92° East 219 252 7,000 -98 Level Boston Center
18:12 43.0758 -74.5008 93° East 223 257 6,800 -432 Descending Boston Center
18:13 43.0731 -74.4128 92° East 232 267 6,200 -645 Descending Boston Center
18:14 43.0706 -74.3244 92° East 232 267 5,500 -689 Descending Boston Center
18:15 43.0678 -74.2419 93° East 220 253 4,800 -689 Descending Boston Center
18:16 43.0628 -74.1567 95° East 218 251 4,100 -476 Descending Boston Center
18:17 43.0578 -74.0656 94° East 219 252 3,800 1,392 Descending Boston Center
18:18 43.0525 -73.9886 95° East 219 252 7,000 1,600 Climbing Boston Center
18:19 43.0494 -73.9089 93° East 219 252 7,000  Level Boston Center
18:21 43.0507 -73.8616 90° East  Level Estimated
18:28 43.0507 -73.8616 90° East  Level Estimated
18:29 43.0507 -73.8616 90° East  Level Estimated
18:30 43.0507 -73.8616 90° East  Level Estimated
18:31 43.0507 -73.8616 90° East  Level Estimated
18:32 43.0507 -73.8616 90° East  Level Estimated
18:33 43.0507 -73.8616 90° East  Level Estimated
18:34 43.0507 -73.8616 90° East  Level Estimated
18:35 43.0507 -73.8616 90° East  Level Estimated
18:36 43.0507 -73.8616 90° East  Level Estimated